Date,TemperatureHighF,TemperatureAvgF,TemperatureLowF,DewpointHighF,DewpointAvgF,DewpointLowF,HumidityHigh,HumidityAvg,HumidityLow,PressureMaxIn,PressureMinIn,WindSpeedMaxMPH,WindSpeedAvgMPH,GustSpeedMaxMPH,PrecipitationSumIn
2013-2-1,5,-2,-16,-2,-10,-20,82,71,55,30.36,30.14,11,1,11,0.00
2013-2-2,12,5,-5,2,-1,-9,92,75,58,30.18,30.02,10,0,10,0.03
2013-2-3,18,12,3,9,6,-1,86,76,59,30.08,29.97,17,1,17,0.00
2013-2-4,19,11,-1,10,4,-6,92,74,48,30.03,29.92,11,1,11,0.01
2013-2-5,28,17,-3,23,12,-7,92,81,73,30.14,29.77,20,2,20,0.00
2013-2-6,29,15,-7,27,10,-12,92,81,72,30.22,30.04,12,1,12,0.00
2013-2-7,33,29,25,30,26,20,92,88,81,30.17,29.96,11,0,11,0.00
2013-2-8,27,16,-3,20,9,-7,88,76,57,30.39,30.16,12,0,12,0.03
2013-2-9,28,18,-4,24,15,-8,89,85,81,30.39,30.03,16,2,16,0.00
2013-2-10,42,33,28,40,31,24,93,90,85,30.04,29.30,16,3,16,0.21
2013-2-11,34,28,21,32,23,15,90,83,75,30.03,29.30,22,4,22,0.02
2013-2-12,33,21,12,22,15,9,90,78,62,30.08,29.84,14,1,14,0.02
2013-2-13,40,27,11,30,21,8,92,78,58,29.85,29.59,9,0,9,0.00
2013-2-14,34,30,19,32,23,8,92,76,56,30.09,29.54,22,2,22,0.07
2013-2-15,22,11,-2,9,2,-7,92,68,51,30.26,30.07,13,1,13,0.00
2013-2-16,18,6,-7,3,-2,-12,92,71,50,30.25,30.18,12,1,12,0.00
2013-2-17,28,12,-11,19,3,-15,92,69,53,30.23,29.84,14,2,14,0.00
2013-2-18,42,30,17,31,23,11,89,76,64,29.87,29.50,20,4,20,0.00
2013-2-19,16,9,4,12,1,-6,83,69,58,30.29,29.60,22,5,22,0.00
2013-2-20,22,10,0,9,1,-6,92,68,51,30.44,30.28,13,1,13,0.00
2013-2-21,23,15,2,20,10,-2,89,80,69,30.48,30.02,15,2,15,0.00
2013-2-22,29,24,21,24,20,18,95,84,76,30.07,29.81,17,1,17,0.14
2013-2-23,30,24,12,21,18,8,86,78,64,29.97,29.83,12,1,12,0.07
2013-2-24,37,21,5,22,14,1,89,76,51,30.15,29.96,7,0,7,0.07
2013-2-25,38,27,18,26,21,15,92,77,59,30.15,30.02,9,0,9,0.00
2013-2-26,35,29,21,26,23,19,90,78,67,30.04,29.73,20,2,20,0.00
2013-2-27,34,31,28,30,26,24,92,83,75,29.87,29.69,13,1,13,0.11
2013-2-28,32,30,26,26,22,16,84,73,64,30.16,29.87,13,1,13,0.03